Location: St. Louis
(38.6270°N, 90.1994°W)
Time: 07:18:47
(UTC-06:00)

deb Explorer IX - Pass Details

Date: 01 December 2021
Orbit: 544 x 1082 km, 38.8° (Epoch: 19 January)

Event Time Altitude Azimuth Distance (km) Brightness Sun altitude
Rises 15:37:04 0° 280° (W) 2,696 ? 9.4°
Reaches altitude 10° 15:39:21 10° 273° (W) 1,810 ? 9.1°
Maximum altitude 15:43:13 42° 202° (SSW) 809 ? 8.5°
Drops below altitude 10° 15:47:22 10° 131° (SE) 1,933 ? 7.8°
Sets 15:49:52 0° 125° (SE) 2,905 ? 7.5°
